Casper, WY

2:26 AM MDT on June 26, 2017 (GMT -0600)
Natrona County International

Weather History for KCPR - June, 2013

Change the Weather History Date:

Wednesday, June 5, 2013

  Actual Average Record
Temperature  
Mean Temperature 54 °F 58 °F  
Max Temperature 72 °F 74 °F 92 °F (1969)
Min Temperature 35 °F 43 °F 32 °F (1966)
Degree Days  
Heating Degree Days 11 7  
Month to date heating degree days 48 38  
Since 1 June heating degree days 48 38  
Since 1 July heating degree days 7247 7482  
Cooling Degree Days 0 1  
Month to date cooling degree days 0 4  
Year to date cooling degree days 10 8  
Since 1 June cooling degree days 0 4  
Growing Degree Days 4 (Base 50)    
Moisture  
Dew Point 31 °F    
Average Humidity 54    
Maximum Humidity 92    
Minimum Humidity 15    
Precipitation  
Precipitation 0.00 in 0.06 in 0.35 in (1945)
Month to date precipitation 0.00 0.31  
Year to date precipitation 5.97 5.52  
Snow  
Snow 0.00 in 0.00 in - ()
Month to date snowfall 0.0 0.0  
Since 1 June snowfall 0.0 0.0  
Since 1 July snowfall 85.7 74.8  
Snow Depth 0.00 in    
Sea Level Pressure  
Sea Level Pressure 30.10 in    
Wind  
Wind Speed 6 mph (East)    
Max Wind Speed 16 mph    
Max Gust Speed 20 mph    
Visibility 10 miles    
Events      
T = Trace of Precipitation, MM = Missing Value Source: NWS Daily Summary

Daily Weather History Graph

Daily Weather History Graph

Search for Another Location

Airport or City:

Trip Planner

Search our weather history database for the weather conditions in past years. The results will help you decide how hot, cold, wet, or windy it might be!

Date:

Astronomy

Jun. 05, 2013 Rise Set
Actual Time 5:27 AM MDT 8:41 PM MDT
Civil Twilight 4:53 AM MDT 9:15 PM MDT
Nautical Twilight 4:08 AM MDT 10:00 PM MDT
Astronomical Twilight 3:14 AM MDT 10:55 PM MDT
Moon 3:37 AM MDT (6/5) 6:07 PM MDT (6/5)
Length of Visible Light 16h 22m
Length of Day
15h 13m
Waning Crescent, 8% of the Moon is Illuminated
Jun 5
Waning Crescent
Jun 8
New
Jun 16
First Quarter
Jun 23
Full
Jun 29
Last Quarter

Hourly Weather History & Observations

Time (MDT) Temp. Windchill Dew Point Humidity Pressure Visibility Wind Dir Wind Speed Gust Speed Precip Events Conditions
12:53 AM 39.0 °F 36.8 °F 32.0 °F 76% 30.21 in 10.0 mi NE 3.5 mph - N/A   Clear
1:53 AM 35.1 °F 29.3 °F 30.9 °F 85% 30.21 in 10.0 mi NNE 6.9 mph - N/A   Clear
2:53 AM 36.0 °F 32.1 °F 32.0 °F 86% 30.19 in 10.0 mi NE 4.6 mph - N/A   Overcast
3:53 AM 36.0 °F - 33.1 °F 89% 30.18 in 10.0 mi Calm Calm - N/A   Overcast
4:53 AM 37.0 °F - 33.1 °F 86% 30.19 in 10.0 mi Calm Calm - N/A   Overcast
5:53 AM 37.9 °F - 34.0 °F 86% 30.19 in 10.0 mi Calm Calm - N/A   Overcast
6:53 AM 41.0 °F - 35.1 °F 79% 30.18 in 10.0 mi Calm Calm - N/A   Overcast
7:53 AM 45.0 °F 41.8 °F 35.1 °F 68% 30.18 in 10.0 mi SW 5.8 mph - N/A   Scattered Clouds
8:53 AM 48.0 °F - 34.0 °F 58% 30.19 in 10.0 mi South 4.6 mph - N/A   Clear
9:53 AM 51.1 °F - 33.1 °F 50% 30.18 in 10.0 mi Calm Calm - N/A   Clear
10:53 AM 55.9 °F - 32.0 °F 40% 30.15 in 10.0 mi Variable 3.5 mph - N/A   Clear
11:53 AM 57.9 °F - 32.0 °F 37% 30.12 in 10.0 mi Calm Calm - N/A   Clear
12:53 PM 57.9 °F - 30.9 °F 36% 30.11 in 10.0 mi Variable 3.5 mph - N/A   Mostly Cloudy
1:53 PM 63.0 °F - 32.0 °F 31% 30.09 in 10.0 mi WSW 10.4 mph - N/A   Clear
2:53 PM 66.0 °F - 32.0 °F 28% 30.05 in 10.0 mi SSW 6.9 mph - N/A   Clear
3:53 PM 66.9 °F - 30.9 °F 26% 30.02 in 10.0 mi SSE 8.1 mph 16.1 mph N/A   Clear
4:53 PM 70.0 °F - 19.0 °F 14% 30.00 in 10.0 mi West 9.2 mph - N/A   Clear
5:53 PM 71.1 °F - 21.9 °F 16% 29.97 in 10.0 mi NNW 4.6 mph - N/A   Clear
6:53 PM 68.0 °F - 28.9 °F 23% 29.98 in 10.0 mi NNE 13.8 mph - N/A   Clear
7:53 PM 64.9 °F - 30.9 °F 28% 29.99 in 10.0 mi NE 12.7 mph - N/A   Clear
8:53 PM 60.1 °F - 30.9 °F 33% 30.00 in 10.0 mi East 10.4 mph - N/A   Clear
9:53 PM 55.9 °F - 32.0 °F 40% 30.02 in 10.0 mi East 11.5 mph - N/A   Clear
10:53 PM 54.0 °F - 32.0 °F 43% 30.01 in 10.0 mi East 9.2 mph - N/A   Clear
11:53 PM 50.0 °F - 32.0 °F 50% 30.01 in 10.0 mi East 3.5 mph - N/A   Clear